Temperature
17 16 16 15 15 14 13 12 12 11 11 11 10 10 10 10 10 9 9 9 9 9 9 9 9 9 9 10 11 11 11 11 12 12 11 10 10 10 11 12 12 12 12
19 17 16 16 15 15 13 12 12 12 11 11 10 10 10 10 9 9 9 9 9 9 9 9 9 9 9 10 10 11 11 12 12 12 11 11 10 10 10 10 10 10 11
18 17 16 16 15 15 14 13 12 12 11 11 10 10 10 10 9 9 9 9 8 8 8 8 8 9 9 10 10 11 11 11 12 11 11 11 9 9 9 9 9 9 10
18 17 17 16 15 15 14 13 13 12 12 11 11 10 10 10 9 9 9 9 8 8 8 8 9 9 9 10 11 11 11 11 11 11 11 11 9 8 8 9 9 9 9
18 17 16 16 15 14 14 14 13 12 12 11 11 10 10 10 10 9 9 9 9 9 9 9 9 9 9 10 11 11 11 11 11 11 11 10 9 8 8 8 8 8 8
19 17 16 15 15 14 14 13 13 12 12 11 11 10 10 10 10 10 10 9 9 9 9 9 9 9 9 10 10 11 11 10 10 10 10 10 9 8 8 8 8 8 8
19 17 16 15 15 14 13 13 13 12 12 11 11 10 10 10 10 10 10 10 10 10 9 9 9 9 10 10 10 10 10 10 10 10 10 10 9 8 8 8 8 8 8
18 18 16 15 14 13 13 13 12 12 12 11 11 11 10 10 10 10 10 10 10 10 10 10 10 10 10 10 10 10 10 10 10 10 10 9 9 8 8 8 8 8 8
18 17 16 15 14 13 12 12 12 12 12 11 11 11 10 10 10 10 10 10 10 10 10 10 10 10 10 10 10 10 10 10 10 9 9 9 9 8 8 8 8 8 8
17 17 16 15 14 13 12 12 12 12 12 11 11 11 11 11 10 10 10 10 10 10 10 10 10 10 10 10 10 10 10 9 9 9 9 9 9 8 8 8 8 8 8
17 17 16 15 15 14 13 12 11 11 11 11 11 11 11 11 11 11 10 10 10 10 10 10 10 10 10 10 10 10 10 9 9 9 9 9 9 8 8 8 8 8 8
18 18 17 16 15 14 13 12 11 11 11 11 11 11 12 12 11 11 11 10 10 10 10 10 10 10 10 10 10 10 10 9 9 9 9 9 9 9 8 8 8 8 7
18 18 17 16 15 14 13 13 12 12 11 11 12 12 12 12 11 11 11 11 10 10 10 10 10 10 9 9 9 9 9 9 9 9 9 9 9 8 8 8 7 7 7
18 18 17 16 15 14 14 13 12 12 12 12 11 11 11 11 11 11 11 10 10 10 10 9 9 9 9 9 9 9 9 9 9 9 9 9 8 8 8 7 7 6 6
17 17 17 16 15 15 14 13 12 12 12 11 11 11 11 11 11 10 10 10 10 9 9 9 9 9 9 9 9 9 9 9 9 9 9 8 8 8 8 7 7 6 5
18 17 17 16 15 14 14 13 13 12 12 11 11 10 10 10 10 10 10 9 9 9 9 9 8 8 8 8 9 9 9 8 8 8 8 8 8 8 8 8 7 6 5
17 17 16 16 15 14 14 13 13 12 11 11 11 10 10 10 10 9 9 9 9 9 8 8 8 8 8 8 8 8 8 8 8 8 8 8 8 8 8 7 7 7 6
17 17 16 16 15 15 14 13 12 12 11 11 10 10 10 10 9 9 9 9 9 8 8 8 7 7 7 8 8 8 7 7 8 8 7 8 8 8 7 7 7 7 7
18 17 16 16 15 15 14 13 12 11 11 11 10 10 10 9 9 9 9 8 8 8 7 7 7 7 7 7 7 7 7 7 7 7 7 7 7 7 7 7 7 7 7
17 17 16 15 15 14 13 13 12 12 11 11 11 11 10 10 9 9 8 8 8 7 7 7 7 7 6 6 6 6 6 7 7 7 7 7 7 7 7 7 7 7 7
17 16 16 15 14 14 13 13 12 12 12 11 11 11 10 10 9 9 9 8 8 7 7 7 6 6 6 6 5 5 6 6 6 7 7 7 7 8 7 7 7 7 7
16 15 15 15 14 13 13 12 12 11 11 11 10 10 10 9 9 9 8 8 8 7 7 6 6 6 5 5 5 4 4 4 6 6 7 7 7 7 7 7 7 7 7
15 15 14 14 14 13 13 12 12 11 11 11 10 10 9 9 8 8 8 7 7 7 6 6 6 5 5 5 4 4 3 3 4 4 5 5 5 5 5 6 6 6 6
14 14 14 13 13 13 12 12 11 11 11 10 10 9 9 9 8 8 7 7 7 6 6 6 6 5 5 4 4 4 4 3 2 2 3 4 3 3 4 4 4 4 4
13 13 13 13 12 12 12 12 11 11 10 10 10 10 9 9 8 8 7 7 7 6 6 6 5 5 4 4 4 4 3 3 2 1 0 2 3 3 4 3 3 3 3
12 12 12 12 12 11 11 11 10 10 10 10 9 9 9 9 8 8 7 7 7 6 6 6 5 5 4 4 4 3 3 2 2 2 0 1 2 3 3 3 3 3 2
Wind_Speed
8 16 22 20 18 16 15 13 12 11 10 9 9 9 10 10 10 11 11 12 12 13 13 13 13 14 14 15 15 15 17 18 19 19 19 19 19 19 19 18 18 18 19
10 21 23 22 20 18 16 14 13 11 10 9 9 9 9 9 9 9 10 10 11 11 12 12 12 13 14 14 14 15 15 16 17 18 18 17 16 18 18 18 17 17 18
13 23 23 23 21 19 17 15 14 12 11 10 9 9 8 8 8 8 9 9 9 10 10 11 11 12 12 13 13 14 15 16 16 17 18 18 14 17 17 17 17 17 17
17 22 20 23 21 19 18 16 15 13 12 11 10 9 8 8 8 8 8 8 8 8 9 10 10 11 11 12 12 13 13 14 15 16 17 16 13 14 15 15 15 16 16
16 21 20 23 21 20 18 17 16 14 13 12 11 10 9 8 8 7 7 7 7 7 8 8 9 9 10 10 11 11 11 12 14 16 17 16 13 12 14 14 14 14 14
13 19 20 23 21 20 19 17 16 15 14 12 11 10 9 8 8 7 7 7 6 6 6 7 7 8 8 8 9 9 9 10 12 15 15 15 12 11 12 12 12 12 12
12 18 19 23 22 20 19 18 17 16 15 13 12 11 10 9 8 7 7 6 6 5 5 5 6 6 6 7 7 7 7 8 10 11 13 13 10 9 10 10 10 10 10
11 16 18 22 21 20 19 18 17 16 15 14 13 12 11 10 9 8 7 7 6 5 4 4 4 4 4 5 5 5 5 5 6 8 11 12 9 7 8 8 8 8 9
12 14 15 17 21 21 20 19 18 17 16 15 14 13 12 11 10 9 8 7 6 5 4 3 2 2 2 3 3 4 4 3 3 6 8 11 8 6 6 6 6 7 7
7 10 14 14 16 19 20 20 19 18 17 16 15 14 13 12 11 10 9 8 7 6 5 4 2 1 0 1 1 1 2 2 1 4 7 9 7 5 4 4 4 5 5
9 8 12 13 13 16 18 19 20 19 18 17 16 15 14 11 9 7 8 9 8 7 6 5 5 4 2 1 2 1 2 1 2 5 7 9 7 5 4 4 4 4 4
14 12 9 12 12 14 16 17 17 18 17 17 15 14 13 11 10 7 7 10 10 9 8 8 7 5 3 2 2 1 1 3 5 7 9 9 8 7 6 5 5 5 5
12 12 12 12 13 14 14 15 13 14 15 15 15 14 12 11 10 8 7 7 7 6 5 4 3 2 3 4 5 6 6 7 9 10 11 11 11 10 10 8 8 7 7
9 12 11 12 12 13 14 14 13 12 13 13 15 15 14 11 9 9 8 8 7 5 4 5 5 5 6 7 8 9 10 11 12 13 14 14 14 13 13 12 11 11 10
11 11 11 10 11 12 12 12 13 13 14 15 16 16 17 13 11 10 10 10 10 9 8 8 8 8 9 10 11 12 13 15 16 16 17 16 16 16 16 15 15 14 14
12 11 11 12 12 13 11 10 11 14 15 15 16 18 19 18 15 13 12 12 13 14 13 12 11 10 10 11 12 14 16 17 18 19 20 19 19 19 19 19 18 18 17
9 9 11 11 11 11 11 12 13 14 15 14 16 19 20 20 18 16 12 12 16 18 16 14 12 10 9 9 10 14 16 17 19 20 21 21 22 21 22 22 22 21 20
8 8 10 11 12 11 10 11 12 13 15 15 16 18 20 21 20 17 13 13 17 17 15 11 8 5 7 7 8 8 12 14 17 20 21 22 22 21 23 25 25 24 24
7 7 9 10 11 11 9 10 10 11 13 14 16 17 18 20 20 18 15 15 16 13 12 10 7 6 8 9 9 8 9 11 15 18 19 21 23 24 24 26 28 28 27
2 4 6 8 8 8 6 5 5 6 8 12 14 17 18 19 20 19 16 15 14 8 8 8 9 8 7 8 9 10 9 9 11 13 18 21 23 25 26 26 26 26 29
5 1 3 5 6 6 4 4 4 6 5 5 11 15 18 19 19 18 15 12 12 9 12 11 8 8 8 4 4 7 8 12 15 14 15 16 19 24 25 25 24 23 24
7 4 1 2 4 6 5 4 3 3 4 5 9 14 18 19 19 18 15 11 10 9 10 10 9 6 6 6 6 4 6 6 7 12 11 12 13 15 17 22 23 23 23
10 7 3 1 2 4 5 3 3 2 1 2 4 6 12 17 18 19 18 15 11 10 12 13 13 11 10 7 9 7 6 7 5 5 7 9 10 9 10 15 19 23 24
8 7 6 4 3 2 4 4 5 5 5 6 4 5 7 14 17 19 19 17 12 10 13 13 13 12 11 11 7 11 12 7 6 6 4 5 7 9 11 11 15 20 24
7 7 6 6 5 3 2 4 5 6 6 5 4 6 7 7 12 15 16 14 12 10 13 13 12 13 12 13 10 7 11 11 10 10 13 8 6 8 11 12 11 15 20
7 7 7 7 6 3 1 2 4 6 7 7 7 7 6 5 6 10 13 12 11 10 13 14 13 13 14 15 13 11 9 8 9 12 17 13 12 8 10 11 11 12 18
Wind_Direction
194 183 182 175 173 170 167 162 156 150 140 130 123 113 104 96 93 89 84 79 74 71 71 69 67 67 66 65 64 63 61 60 56 53 51 56 63 64 64 63 59 55 58
163 176 181 175 174 172 170 166 161 156 150 141 135 127 119 110 102 96 90 84 79 75 73 71 68 68 68 68 67 67 65 63 59 54 48 40 53 64 62 61 61 59 59
155 171 181 175 175 174 173 169 165 163 158 151 144 137 129 122 113 105 97 91 85 80 76 73 71 70 70 70 69 69 68 65 60 52 42 31 37 62 62 60 59 59 58
159 170 179 176 176 176 175 173 170 168 165 161 155 148 142 135 127 117 109 103 95 88 82 77 73 72 72 72 70 70 68 64 57 47 37 28 29 59 60 60 59 58 57
160 170 178 176 177 178 178 176 174 173 171 168 164 159 155 149 140 130 122 114 106 97 89 81 77 74 75 76 74 72 70 62 50 42 34 26 25 57 60 59 58 57 56
161 171 180 178 180 180 181 180 179 178 177 175 172 169 166 162 155 146 138 129 121 111 101 90 82 77 76 80 81 77 72 61 46 38 28 20 19 54 59 58 57 56 54
161 172 182 181 183 184 184 184 184 183 183 182 180 179 177 174 168 162 156 149 141 131 117 104 92 82 76 80 85 84 76 61 41 29 18 9 12 53 56 54 54 53 52
161 171 183 186 187 187 188 188 189 189 189 189 188 188 187 185 181 177 175 169 163 153 139 122 104 89 79 78 85 89 83 61 37 19 7 360 8 49 51 48 48 49 48
165 173 186 195 190 192 193 193 193 194 195 195 195 196 195 194 193 192 190 188 183 177 166 153 131 102 83 77 85 93 94 77 37 5 354 350 3 36 43 40 37 38 40
171 182 190 200 194 192 195 197 197 198 200 201 201 201 202 202 204 205 202 201 201 201 197 194 190 192 164 52 75 108 113 98 12 336 334 334 343 6 20 24 20 19 23
192 198 195 200 196 191 192 199 200 202 204 206 206 205 205 204 206 214 202 210 217 219 220 222 225 233 239 274 316 240 143 188 264 291 301 311 320 327 335 341 342 343 347
201 200 198 198 195 189 191 198 201 202 204 206 205 204 201 196 200 210 210 218 229 234 235 237 239 245 230 224 294 336 250 248 257 269 280 292 296 297 299 300 302 304 306
201 199 200 198 194 190 190 192 196 196 197 200 199 197 192 189 195 201 210 224 247 266 257 258 272 228 215 229 248 258 259 257 257 262 269 279 282 283 284 283 282 283 284
199 204 200 195 194 195 191 190 191 191 192 193 196 195 187 184 190 195 203 216 232 247 251 245 244 246 248 249 251 254 254 253 254 259 264 269 274 276 278 277 275 274 274
211 206 200 193 196 194 192 191 192 194 195 196 196 197 195 190 193 200 208 217 227 234 237 241 245 249 254 256 256 254 253 253 254 256 259 263 269 272 273 273 273 271 269
216 208 196 198 198 194 196 196 195 196 198 198 200 201 202 201 200 201 208 216 223 227 231 233 238 244 251 255 257 255 255 256 257 257 258 260 263 267 269 270 270 270 268
223 205 196 199 195 197 201 201 199 197 197 199 204 206 206 207 206 205 209 217 224 226 227 230 236 242 250 251 253 255 256 256 255 256 257 257 258 260 263 265 266 267 266
221 204 197 201 197 201 203 203 201 198 200 206 207 208 211 212 211 208 214 224 226 223 220 220 223 228 240 243 251 253 252 253 253 254 254 253 252 252 255 258 261 262 263
215 202 192 197 195 198 198 202 204 203 208 212 210 212 215 215 214 212 221 228 222 217 218 226 218 216 235 244 249 252 249 250 252 254 251 249 248 247 247 252 255 256 257
178 190 191 195 193 180 177 187 202 216 221 220 217 220 219 219 218 218 228 229 216 211 221 223 231 222 230 243 259 263 255 248 248 247 249 250 247 244 243 243 245 249 252
47 91 191 191 185 161 158 178 202 229 226 228 230 229 225 223 220 219 230 226 214 220 229 224 224 231 238 223 258 280 267 248 246 246 243 244 245 243 241 239 239 240 245
30 26 39 196 185 181 174 161 175 190 216 222 228 231 229 227 225 226 228 230 219 224 230 225 215 222 228 191 198 253 296 297 250 241 238 238 242 241 239 240 237 237 238
24 14 25 65 175 183 167 136 113 90 347 286 244 240 235 232 230 230 230 230 225 221 232 230 221 221 234 217 202 205 235 254 298 262 237 235 235 233 236 239 237 237 237
14 15 33 51 80 129 155 166 187 213 239 243 235 239 239 232 232 232 233 232 230 227 233 234 226 224 226 235 217 223 232 225 247 291 259 246 240 234 233 234 236 236 236
18 25 34 52 60 81 142 182 202 235 250 266 267 265 259 245 238 237 235 235 235 233 235 237 231 224 224 233 227 216 233 242 236 249 270 261 244 231 230 230 231 233 234
22 26 30 44 45 49 100 183 214 243 263 280 280 277 274 264 250 242 239 238 239 238 239 239 237 231 231 233 235 227 219 219 221 229 251 261 262 244 225 226 226 227 231
Height
1548 1550 1553 1555 1557 1559 1560 1562 1563 1564 1565 1566 1567 1567 1567 1568 1568 1568 1568 1568 1568 1567 1567 1566 1566 1565 1565 1564 1563 1563 1563 1563 1563 1563 1563 1563 1563 1562 1562 1561 1561 1561 1561
1548 1549 1552 1554 1557 1559 1560 1562 1563 1564 1565 1566 1567 1567 1568 1568 1568 1569 1568 1568 1568 1568 1568 1567 1567 1566 1566 1565 1564 1564 1564 1564 1564 1564 1564 1564 1564 1564 1563 1562 1562 1562 1562
1547 1549 1551 1554 1556 1558 1560 1562 1563 1564 1565 1566 1567 1568 1568 1568 1569 1569 1569 1569 1569 1569 1568 1568 1568 1567 1567 1566 1566 1565 1565 1565 1565 1565 1565 1565 1564 1565 1564 1564 1563 1563 1562
1547 1549 1551 1553 1556 1558 1560 1562 1563 1564 1566 1567 1567 1568 1568 1569 1569 1569 1569 1569 1569 1569 1569 1569 1568 1568 1568 1567 1567 1566 1566 1566 1566 1566 1566 1566 1565 1566 1565 1564 1564 1563 1563
1546 1549 1551 1553 1555 1558 1560 1562 1563 1565 1566 1567 1568 1568 1569 1569 1570 1570 1570 1570 1570 1570 1569 1569 1569 1569 1569 1568 1568 1568 1567 1567 1567 1567 1567 1566 1566 1567 1566 1565 1564 1564 1563
1546 1548 1551 1553 1555 1557 1560 1562 1563 1565 1566 1567 1568 1568 1569 1570 1570 1570 1570 1570 1570 1570 1570 1570 1570 1570 1570 1569 1569 1569 1569 1568 1568 1568 1567 1567 1566 1567 1566 1565 1565 1564 1564
1546 1548 1550 1552 1555 1557 1559 1561 1563 1565 1566 1567 1568 1569 1569 1570 1570 1570 1571 1571 1571 1571 1571 1571 1571 1571 1571 1570 1570 1570 1569 1569 1569 1568 1568 1567 1567 1567 1566 1566 1565 1564 1564
1546 1547 1549 1552 1554 1556 1558 1560 1562 1564 1566 1567 1568 1569 1570 1570 1570 1571 1571 1571 1571 1571 1571 1571 1571 1571 1571 1571 1571 1570 1570 1570 1569 1569 1569 1568 1568 1567 1567 1566 1565 1565 1564
1545 1546 1548 1550 1552 1555 1557 1559 1561 1563 1565 1566 1567 1568 1569 1570 1570 1571 1571 1571 1572 1572 1572 1572 1571 1571 1571 1571 1571 1571 1570 1570 1570 1569 1569 1568 1568 1567 1566 1566 1565 1564 1563
1543 1544 1546 1548 1550 1552 1555 1557 1559 1561 1563 1565 1566 1568 1569 1569 1570 1571 1571 1571 1572 1572 1572 1572 1572 1571 1571 1571 1571 1570 1570 1570 1569 1569 1569 1568 1567 1567 1566 1565 1565 1564 1563
1540 1542 1544 1546 1548 1550 1552 1555 1557 1560 1562 1563 1565 1566 1568 1569 1569 1570 1571 1571 1571 1571 1571 1571 1571 1571 1571 1570 1570 1570 1570 1569 1569 1568 1568 1567 1567 1566 1565 1565 1564 1563 1562
1537 1539 1541 1543 1545 1547 1550 1552 1555 1557 1559 1561 1563 1564 1566 1567 1568 1569 1570 1570 1570 1571 1571 1571 1571 1570 1570 1570 1569 1569 1569 1568 1568 1567 1567 1566 1565 1565 1564 1563 1562 1562 1561
1535 1537 1538 1540 1542 1545 1547 1549 1552 1554 1556 1558 1560 1562 1564 1565 1567 1567 1568 1569 1569 1569 1569 1570 1569 1569 1569 1569 1568 1567 1567 1567 1566 1565 1565 1564 1563 1563 1562 1561 1561 1560 1559
1532 1534 1536 1538 1540 1542 1544 1546 1549 1551 1553 1555 1558 1560 1561 1563 1564 1565 1566 1567 1567 1567 1568 1568 1568 1567 1567 1566 1566 1565 1565 1564 1564 1563 1562 1562 1561 1560 1559 1559 1558 1557 1557
1529 1532 1534 1536 1537 1539 1541 1543 1546 1548 1550 1553 1555 1557 1558 1560 1561 1563 1563 1564 1564 1565 1565 1565 1565 1564 1564 1563 1562 1562 1562 1561 1561 1560 1559 1558 1558 1557 1556 1555 1555 1554 1554
1526 1528 1530 1532 1535 1537 1538 1540 1542 1545 1547 1550 1551 1553 1555 1556 1558 1559 1560 1560 1561 1561 1561 1561 1561 1560 1559 1559 1558 1558 1557 1557 1556 1556 1555 1554 1554 1553 1552 1551 1551 1551 1550
1522 1524 1526 1528 1531 1533 1535 1537 1539 1542 1544 1546 1548 1550 1551 1552 1553 1554 1555 1556 1556 1557 1557 1556 1556 1555 1554 1553 1552 1552 1552 1551 1550 1550 1549 1549 1548 1548 1547 1546 1546 1546 1545
1518 1519 1522 1524 1526 1529 1531 1534 1536 1538 1540 1542 1544 1546 1547 1548 1549 1549 1550 1550 1551 1552 1551 1550 1550 1549 1548 1547 1546 1546 1545 1544 1543 1543 1542 1541 1541 1541 1541 1540 1540 1539 1539
1515 1516 1518 1520 1522 1525 1528 1530 1532 1534 1536 1538 1539 1541 1542 1543 1544 1544 1544 1544 1545 1545 1545 1544 1543 1542 1541 1540 1539 1537 1536 1535 1534 1534 1533 1533 1532 1533 1533 1533 1533 1532 1532
1514 1514 1516 1517 1519 1522 1524 1526 1528 1530 1532 1533 1534 1536 1537 1538 1538 1538 1538 1538 1538 1538 1537 1537 1536 1535 1534 1533 1531 1527 1526 1525 1524 1523 1522 1522 1522 1523 1523 1523 1524 1524 1524
1515 1515 1516 1517 1518 1520 1521 1523 1525 1526 1528 1529 1530 1531 1531 1532 1532 1531 1531 1531 1530 1529 1529 1529 1528 1527 1525 1526 1522 1517 1515 1514 1511 1510 1511 1511 1511 1512 1512 1512 1512 1513 1513
1517 1517 1517 1517 1518 1519 1520 1521 1522 1523 1524 1525 1526 1526 1526 1525 1525 1524 1524 1523 1522 1521 1521 1520 1520 1518 1517 1518 1516 1512 1505 1500 1498 1499 1499 1498 1499 1500 1500 1500 1500 1501 1502
1520 1519 1518 1518 1518 1519 1519 1520 1520 1520 1520 1521 1521 1521 1521 1520 1519 1518 1516 1515 1514 1513 1511 1511 1511 1509 1508 1508 1508 1507 1502 1492 1490 1487 1487 1488 1488 1489 1490 1490 1490 1491 1491
1523 1522 1521 1520 1520 1520 1520 1520 1519 1519 1518 1518 1517 1515 1515 1514 1512 1511 1509 1508 1506 1504 1503 1502 1501 1500 1499 1497 1496 1495 1494 1491 1488 1479 1476 1477 1477 1477 1479 1480 1480 1481 1481
1525 1524 1523 1522 1522 1521 1520 1520 1519 1518 1517 1515 1514 1512 1510 1508 1506 1504 1502 1500 1498 1496 1494 1493 1492 1490 1488 1487 1486 1484 1483 1481 1478 1475 1465 1464 1465 1464 1466 1467 1467 1468 1469
1527 1526 1525 1524 1523 1522 1520 1519 1518 1516 1514 1512 1510 1508 1506 1504 1502 1499 1497 1494 1492 1489 1487 1485 1483 1481 1479 1477 1476 1474 1472 1470 1467 1465 1459 1453 1452 1451 1453 1452 1453 1455 1457